Flag for Germany Weather past 2 weeks in Wermelskirchen, North Rhine-Westphalia, Germany

Now
52 °F

Drizzle. Fog.


Feels Like: 48 °F
Forecast: 31 / 49 °F
Wind: 10 mph from Northwest

Location: Koeln / Bonn

Current Time: Apr 27, 2015 at 6:26:43 AM

Latest Report: Apr 27, 2015 at 5:20 AM


Visibility: 3 mi

Pressure: 29.62 "Hg

Humidity: 94%

Dew point: 50 °F

Location of WermelskirchenLocation

Historic Weather in Wermelskirchen — Graph

°F

Wermelskirchen temperature yesterday

Maximum temperature yesterday: 63 °F (at 3:50 PM)
Minimum temperature yesterday: 52 °F (at 12:20 AM)
Average temperature yesterday: 56 °F

Past Weeks' High & Low Weather Summary

 TemperatureHumidityPressure
High77 °F (Apr 15, 4:20 PM)100% (Apr 23, 7:20 AM)30.48 "Hg (Apr 23, 7:20 AM)
Low30 °F (Apr 19, 6:50 AM)22% (Apr 24, 5:20 PM)29.59 "Hg (Apr 27, 3:20 AM)
Average53 °F60%30.13 "Hg
* Reported Apr 12 5:20 AM — Apr 27 5:20 AM, Wermelskirchen, Weather by CustomWeather, © 2015

Note: Actual official high and low records may vary slightly from our data, if they occured in-between our weather recording intervals... More about our weather records

Advertising

Wermelskirchen weather history for previous 24 hours

 ConditionsComfort  
Time TempWeatherWind HumidityBarometerVisibility
5:20 AM
Mon, Apr 27
52 °FDrizzle. Fog.10 mph94%29.62 "Hg2 mi
4:50 AM52 °FLight rain. Fog.5 mph100%29.59 "Hg2 mi
4:20 AM52 °FLight rain. Fog.3 mph100%29.59 "Hg3 mi
3:50 AM52 °FLight rain. Partly cloudy.2 mph94%29.59 "Hg4 mi
3:20 AM52 °FLight rain. Partly cloudy.1 mph100%29.59 "Hg4 mi
2:50 AM54 °FLight rain. Passing clouds.2 mph94%29.62 "Hg5 mi
2:20 AM54 °FLight rain. Partly cloudy.1 mph94%29.62 "Hg6 mi
1:50 AM54 °FRain. Mostly cloudy.1 mph94%29.62 "Hg4 mi
1:20 AM54 °FRain. Mostly cloudy.6 mph94%29.62 "Hg4 mi
12:50 AM54 °FLight rain. Mostly cloudy.2 mph94%29.65 "Hg4 mi
12:20 AM54 °FLight rain. Partly cloudy.2 mph94%29.65 "Hg5 mi
11:50 PM
Sun, Apr 26
54 °FLight rain. Passing clouds.2 mph94%29.65 "Hg6 mi
11:20 PM54 °FLight rain. Passing clouds.5 mph94%29.65 "HgN/A
10:50 PM54 °FLight rain. Passing clouds.2 mph94%29.65 "HgN/A
10:20 PM54 °FLight rain. Passing clouds.2 mph94%29.68 "HgN/A
9:50 PM55 °FLight rain. Passing clouds.1 mph88%29.68 "HgN/A
9:20 PM55 °FPartly sunny.1 mph88%29.68 "HgN/A
8:50 PM55 °FPartly sunny.1 mph88%29.68 "HgN/A
8:20 PM55 °FBroken clouds.3 mph88%29.68 "HgN/A
7:50 PM55 °FLight rain. Broken clouds.7 mph88%29.68 "HgN/A
7:20 PM57 °FScattered showers. Partly sunny.7 mph88%29.68 "HgN/A
6:50 PM57 °FScattered showers. Scattered clouds.7 mph88%29.68 "HgN/A
6:20 PM59 °FRain showers. Broken clouds.10 mph77%29.68 "Hg5 mi
5:50 PM61 °FSprinkles. Broken clouds.6 mph72%29.68 "HgN/A
5:20 PM63 °FScattered showers. Scattered clouds.6 mph68%29.68 "HgN/A
4:50 PM61 °FSprinkles. Broken clouds.6 mph72%29.68 "HgN/A
4:20 PM63 °FSprinkles. Scattered clouds.5 mph68%29.68 "HgN/A
3:50 PM63 °FBroken clouds.7 mph73%29.71 "HgN/A
3:20 PM61 °FBroken clouds.5 mph72%29.71 "HgN/A
2:50 PM59 °FScattered showers. Partly sunny.7 mph82%29.71 "HgN/A
2:20 PM59 °FRain showers. Partly sunny.3 mph82%29.71 "HgN/A
1:50 PM61 °FSprinkles. Broken clouds.3 mph83%29.71 "HgN/A
1:20 PM59 °FRain showers. Scattered clouds.6 mph82%29.74 "HgN/A
12:50 PM59 °FScattered showers. Partly sunny.9 mph77%29.74 "HgN/A
12:20 PM59 °FScattered showers. Broken clouds.5 mph77%29.74 "HgN/A
11:50 AM61 °FSprinkles. Broken clouds.5 mph72%29.74 "HgN/A
11:20 AM59 °FScattered showers. Broken clouds.3 mph77%29.74 "HgN/A
10:50 AM59 °FBroken clouds.6 mph72%29.77 "HgN/A
10:20 AM59 °FBroken clouds.10 mph77%29.74 "HgN/A
9:50 AM59 °FBroken clouds.6 mph77%29.77 "HgN/A
9:20 AM55 °FPartly sunny.6 mph88%29.77 "HgN/A
8:50 AM55 °FPartly sunny.3 mph88%29.77 "HgN/A
8:20 AM54 °FPartly sunny.5 mph94%29.77 "HgN/A
7:50 AM54 °FPartly sunny.5 mph94%29.77 "HgN/A
7:20 AM54 °FPartly sunny.7 mph88%29.74 "HgN/A
6:50 AM52 °FPassing clouds.6 mph94%29.74 "HgN/A
6:20 AM52 °FPartly cloudy.7 mph94%29.74 "HgN/A
Weather by CustomWeather, © 2015

See weather overviewHow to use our weather pages